Location: East Horndon
(51.5667°N, 0.3500°E)
Time: 23:57:13
(UTC+00:00)

CBERS-1 - Visible Passes

Search period start: 15 February 2026 00:00
Search period end: 25 February 2026 00:00
Orbit: 765 x 772 km, 98.9° (Epoch: 15 February)

Date Brightness Start Highest point End Pass type
(mag) Time Alt. Az. Time Alt. Az. Time Alt. Az.
15 Feb 6.9 04:58:20 10° NE 05:01:51 18° E 05:05:19 10° SE visible
15 Feb 4.0 06:36:19 10° NNE 06:41:27 77° WNW 06:46:33 10° SSW visible
15 Feb 6.2 17:57:31 10° SSW 18:02:00 31° W 18:06:30 10° NNW visible
16 Feb 4.8 06:00:35 10° NNE 06:05:38 56° ESE 06:10:39 10° S visible
17 Feb 6.1 05:25:09 10° NE 05:29:37 29° E 05:34:04 10° SSE visible
17 Feb 7.1 18:26:11 10° SW 18:29:46 19° W 18:33:22 10° NW visible
18 Feb 7.1 04:50:24 10° NE 04:53:25 16° E 04:56:25 10° ESE visible
18 Feb 4.1 06:28:00 10° NNE 06:33:09 89° WNW 06:38:16 10° SSW visible
18 Feb 5.9 17:48:58 10° SSW 17:53:37 36° W 17:58:20 10° NNW visible
19 Feb 5.2 05:52:19 10° NNE 05:57:17 48° E 06:02:13 10° S visible
19 Feb 7.6 18:56:06 10° WSW 18:57:39 11° W 18:59:13 10° WNW visible
20 Feb 6.4 05:17:00 10° NE 05:21:14 25° E 05:25:25 10° SSE visible
20 Feb 6.9 18:17:25 10° SW 18:21:21 22° W 18:25:19 10° NW visible
21 Feb 7.3 04:42:37 10° ENE 04:44:59 13° E 04:47:19 10° ESE visible
21 Feb 4.3 06:19:42 10° NNE 06:24:51 79° ESE 06:29:58 10° SSW visible
22 Feb 5.5 05:44:06 10° NNE 05:48:56 41° E 05:53:45 10° SSE visible
22 Feb 7.4 18:46:43 10° WSW 18:49:11 14° W 18:51:42 10° NW visible
23 Feb 6.7 05:08:55 10° NE 05:12:50 22° E 05:16:44 10° SE visible
23 Feb 6.6 18:08:43 10° SSW 18:12:57 26° W 18:17:13 10° NW visible
24 Feb 7.5 04:35:13 10° ENE 04:36:31 11° E 04:37:50 10° E visible
24 Feb 4.5 06:11:24 10° NNE 06:16:31 67° ESE 06:21:36 10° S visible
